User: anonymous
Location: ASU Dark Sky Observatory
(36.2504°N, 81.4125°W)
Time: 01:39:50
(UTC-04:00)
Language:

ETS-7 - Orbit

View from above orbital plane
View from above orbital plane
View from above satellite
View from above satellite

Ground track
Ground track

The orbit data is extracted from the following two-line orbital elements,

1 25064U 97074B   14260.49145904  .00024517  00000-0  40239-3 0  2503
2 25064 034.9633 023.2442 0003130 212.8326 213.5904 15.51438526935501
Epoch (UTC): 17 September 2014 11:47:42
Eccentricity: 0.0003130
inclination: 34.9633°
perigee height: 410 km
apogee height: 414 km
right ascension of ascending node: 23.2442°
argument of perigee: 212.8326°
revolutions per day: 15.51438526
mean anomaly at epoch: 213.5904°
orbit number at epoch: 93550

The dashed part of the orbit path shows where the satellite is in the earth's shadow,  

DLR